Time,TemperatureF,DewpointF,PressureIn,WindDirection,WindDirectionDegrees,WindSpeedMPH,WindSpeedGustMPH,Humidity,HourlyPrecipIn,Conditions,Clouds,dailyrainin,SoftwareType,DateUTC
2013-09-15 07:06:00,67.9,62.6,0.00,NW,315,0.0,0.0,83,0.00,,,0.00,WUHU216HW,2013-09-15 14:06:00,
2013-09-15 07:11:00,67.7,62.0,0.00,NNW,338,0.0,0.0,82,0.00,,,0.00,WUHU216HW,2013-09-15 14:11:00,
2013-09-15 07:16:00,67.7,62.0,0.00,SE,135,0.0,0.0,82,0.00,,,0.00,WUHU216HW,2013-09-15 14:16:00,
2013-09-15 07:21:00,67.7,62.0,0.00,NW,315,0.0,0.0,82,0.00,,,0.00,WUHU216HW,2013-09-15 14:21:00,
2013-09-15 07:26:00,67.7,62.4,0.00,North,0,0.0,0.0,83,0.00,,,0.00,WUHU216HW,2013-09-15 14:26:00,
2013-09-15 07:31:00,67.5,62.5,0.00,West,270,0.0,0.0,84,0.00,,,0.00,WUHU216HW,2013-09-15 14:31:00,
2013-09-15 07:36:00,67.7,62.6,0.00,North,0,0.0,0.0,84,0.00,,,0.00,WUHU216HW,2013-09-15 14:36:00,
2013-09-15 07:41:00,67.7,62.6,0.00,NNW,338,0.0,0.0,84,0.00,,,0.00,WUHU216HW,2013-09-15 14:41:00,
2013-09-15 07:46:00,67.7,62.4,0.00,NNW,338,0.0,0.0,83,0.00,,,0.00,WUHU216HW,2013-09-15 14:46:00,
2013-09-15 07:51:00,67.7,62.4,0.00,NW,315,0.0,0.0,83,0.00,,,0.00,WUHU216HW,2013-09-15 14:51:00,
2013-09-15 07:56:00,67.5,62.2,0.00,NNW,338,0.0,0.0,83,0.00,,,0.00,WUHU216HW,2013-09-15 14:56:00,
2013-09-15 08:01:00,67.3,62.0,0.00,NW,315,0.0,0.0,83,0.00,,,0.00,WUHU216HW,2013-09-15 15:01:00,
2013-09-15 08:06:00,67.3,62.3,0.00,North,0,0.0,0.0,84,0.00,,,0.00,WUHU216HW,2013-09-15 15:06:00,
2013-09-15 08:11:00,67.3,62.3,0.00,NNW,338,0.0,0.0,84,0.00,,,0.00,WUHU216HW,2013-09-15 15:11:00,
2013-09-15 08:16:00,67.3,62.0,0.00,NW,315,0.0,0.0,83,0.00,,,0.00,WUHU216HW,2013-09-15 15:16:00,
2013-09-15 08:21:00,67.3,62.0,0.00,NW,315,0.0,0.0,83,0.00,,,0.00,WUHU216HW,2013-09-15 15:21:00,
2013-09-15 08:26:00,67.7,62.0,0.00,North,0,0.0,0.0,82,0.00,,,0.00,WUHU216HW,2013-09-15 15:26:00,
2013-09-15 08:31:00,67.7,62.0,0.00,WSW,248,0.7,3.6,82,0.00,,,0.00,WUHU216HW,2013-09-15 15:31:00,
2013-09-15 08:36:00,67.7,62.0,0.00,South,180,2.0,3.6,82,0.00,,,0.00,WUHU216HW,2013-09-15 15:36:00,
2013-09-15 08:41:00,67.7,62.0,0.00,NNW,338,0.4,3.4,82,0.00,,,0.00,WUHU216HW,2013-09-15 15:41:00,
2013-09-15 08:46:00,67.7,62.0,0.00,WNW,293,2.5,2.5,82,0.00,,,0.00,WUHU216HW,2013-09-15 15:46:00,
2013-09-15 08:51:00,67.9,62.2,0.00,North,0,0.9,3.6,82,0.00,,,0.00,WUHU216HW,2013-09-15 15:51:00,
2013-09-15 08:56:00,68.0,62.1,0.00,North,0,0.9,3.6,81,0.00,,,0.00,WUHU216HW,2013-09-15 15:56:00,
2013-09-15 09:01:00,68.4,62.4,0.00,NW,315,2.0,3.4,81,0.00,,,0.00,WUHU216HW,2013-09-15 16:01:00,
2013-09-15 09:06:00,68.4,62.1,0.00,SE,135,0.7,4.7,80,0.00,,,0.00,WUHU216HW,2013-09-15 16:06:00,
2013-09-15 09:11:00,68.6,62.2,0.00,West,270,2.2,4.7,80,0.00,,,0.00,WUHU216HW,2013-09-15 16:11:00,
2013-09-15 09:16:00,68.6,61.8,0.00,North,0,2.2,3.1,79,0.00,,,0.00,WUHU216HW,2013-09-15 16:16:00,
2013-09-15 09:21:00,68.6,61.8,0.00,North,0,1.8,4.0,79,0.00,,,0.00,WUHU216HW,2013-09-15 16:21:00,
2013-09-15 09:26:00,68.8,61.7,0.00,NW,315,3.4,4.0,78,0.00,,,0.00,WUHU216HW,2013-09-15 16:26:00,
2013-09-15 09:31:00,68.8,61.7,0.00,NW,315,6.9,6.9,78,0.00,,,0.00,WUHU216HW,2013-09-15 16:31:00,
2013-09-15 09:36:00,68.8,61.7,0.00,WNW,293,3.6,6.9,78,0.00,,,0.00,WUHU216HW,2013-09-15 16:36:00,
2013-09-15 09:41:00,68.8,61.3,0.00,WSW,248,2.9,6.9,77,0.00,,,0.00,WUHU216HW,2013-09-15 16:41:00,
2013-09-15 09:46:00,68.8,61.7,0.00,ENE,68,2.5,9.2,78,0.00,,,0.00,WUHU216HW,2013-09-15 16:46:00,
2013-09-15 09:51:00,68.9,61.4,0.00,North,0,2.5,9.2,77,0.00,,,0.00,WUHU216HW,2013-09-15 16:51:00,
2013-09-15 09:56:00,68.8,61.3,0.00,NW,315,3.4,6.7,77,0.00,,,0.00,WUHU216HW,2013-09-15 16:56:00,
2013-09-15 10:01:00,68.9,61.4,0.00,NNW,338,0.4,8.5,77,0.00,,,0.00,WUHU216HW,2013-09-15 17:01:00,
2013-09-15 10:06:00,69.1,60.9,0.00,WNW,293,4.5,8.5,75,0.00,,,0.00,WUHU216HW,2013-09-15 17:06:00,
2013-09-15 10:11:00,69.1,61.2,0.00,West,270,2.7,5.8,76,0.00,,,0.00,WUHU216HW,2013-09-15 17:11:00,
2013-09-15 10:16:00,69.1,61.2,0.00,WSW,248,3.8,6.3,76,0.00,,,0.00,WUHU216HW,2013-09-15 17:16:00,
2013-09-15 10:21:00,69.5,60.8,0.00,NW,315,5.4,6.3,74,0.00,,,0.00,WUHU216HW,2013-09-15 17:21:00,
2013-09-15 10:26:00,69.8,61.1,0.00,NNW,338,2.9,7.6,74,0.00,,,0.00,WUHU216HW,2013-09-15 17:26:00,
2013-09-15 10:31:00,70.0,61.3,0.00,North,0,1.1,7.6,74,0.00,,,0.00,WUHU216HW,2013-09-15 17:31:00,
2013-09-15 10:36:00,70.4,60.8,0.00,WNW,293,5.6,5.6,72,0.00,,,0.00,WUHU216HW,2013-09-15 17:36:00,
2013-09-15 10:41:00,70.2,60.3,0.00,East,90,3.6,7.4,71,0.00,,,0.00,WUHU216HW,2013-09-15 17:41:00,
2013-09-15 10:46:00,70.4,60.5,0.00,East,90,1.1,8.1,71,0.00,,,0.00,WUHU216HW,2013-09-15 17:46:00,
2013-09-15 10:51:00,70.0,60.5,0.00,East,90,3.4,8.1,72,0.00,,,0.00,WUHU216HW,2013-09-15 17:51:00,
2013-09-15 10:56:00,70.6,61.0,0.00,NNW,338,6.3,6.3,72,0.00,,,0.00,WUHU216HW,2013-09-15 17:56:00,
2013-09-15 11:01:00,71.1,60.8,0.00,West,270,4.7,6.3,70,0.00,,,0.00,WUHU216HW,2013-09-15 18:01:00,
2013-09-15 11:06:00,71.3,61.0,0.00,North,0,2.2,10.1,70,0.00,,,0.00,WUHU216HW,2013-09-15 18:06:00,
2013-09-15 11:11:00,71.6,61.4,0.00,NNW,338,5.1,10.1,70,0.00,,,0.00,WUHU216HW,2013-09-15 18:11:00,
2013-09-15 11:16:00,71.6,61.4,0.00,NNE,23,2.5,5.4,70,0.00,,,0.00,WUHU216HW,2013-09-15 18:16:00,
2013-09-15 11:21:00,71.8,61.6,0.00,NNW,338,2.5,4.7,70,0.00,,,0.00,WUHU216HW,2013-09-15 18:21:00,
2013-09-15 11:26:00,71.6,60.9,0.00,NNW,338,4.3,4.5,69,0.00,,,0.00,WUHU216HW,2013-09-15 18:26:00,
2013-09-15 11:31:00,71.1,60.8,0.00,NW,315,4.0,5.4,70,0.00,,,0.00,WUHU216HW,2013-09-15 18:31:00,
2013-09-15 11:36:00,70.4,60.5,0.00,West,270,5.6,6.3,71,0.00,,,0.00,WUHU216HW,2013-09-15 18:36:00,
2013-09-15 11:41:00,70.0,60.5,0.00,West,270,3.4,6.9,72,0.00,,,0.00,WUHU216HW,2013-09-15 18:41:00,
2013-09-15 11:46:00,70.0,60.1,0.00,NW,315,1.1,6.9,71,0.00,,,0.00,WUHU216HW,2013-09-15 18:46:00,
2013-09-15 11:51:00,70.0,60.5,0.00,WNW,293,2.9,8.5,72,0.00,,,0.00,WUHU216HW,2013-09-15 18:51:00,
2013-09-15 11:56:00,71.3,61.0,0.00,North,0,2.5,8.5,70,0.00,,,0.00,WUHU216HW,2013-09-15 18:56:00,
2013-09-15 12:01:00,72.2,61.5,0.00,East,90,1.8,10.5,69,0.00,,,0.00,WUHU216HW,2013-09-15 19:01:00,
2013-09-15 12:06:00,71.6,60.9,0.00,NW,315,2.9,10.5,69,0.00,,,0.00,WUHU216HW,2013-09-15 19:06:00,
2013-09-15 12:11:00,71.5,61.2,0.00,NW,315,5.6,9.2,70,0.00,,,0.00,WUHU216HW,2013-09-15 19:11:00,
2013-09-15 12:21:00,71.3,60.6,0.00,NNW,338,1.1,5.6,69,0.00,,,0.00,WUHU216HW,2013-09-15 19:21:00,
2013-09-15 12:26:00,71.1,60.8,0.00,North,0,2.9,9.4,70,0.00,,,0.00,WUHU216HW,2013-09-15 19:26:00,
2013-09-15 12:31:00,70.9,60.7,0.00,East,90,3.4,6.5,70,0.00,,,0.00,WUHU216HW,2013-09-15 19:31:00,
2013-09-15 12:36:00,71.3,60.6,0.00,NE,45,4.3,6.7,69,0.00,,,0.00,WUHU216HW,2013-09-15 19:36:00,
2013-09-15 12:41:00,71.1,60.8,0.00,North,0,4.5,6.7,70,0.00,,,0.00,WUHU216HW,2013-09-15 19:41:00,
2013-09-15 12:46:00,70.9,60.7,0.00,NNW,338,3.4,8.5,70,0.00,,,0.00,WUHU216HW,2013-09-15 19:46:00,
2013-09-15 12:51:00,71.6,61.4,0.00,South,180,2.2,8.5,70,0.00,,,0.00,WUHU216HW,2013-09-15 19:51:00,
2013-09-15 12:56:00,72.0,60.8,0.00,North,0,3.6,5.8,68,0.00,,,0.00,WUHU216HW,2013-09-15 19:56:00,
2013-09-15 13:01:00,72.7,61.1,0.00,North,0,3.1,5.8,67,0.00,,,0.00,WUHU216HW,2013-09-15 20:01:00,
2013-09-15 13:06:00,72.9,60.8,0.00,NE,45,2.2,11.2,66,0.00,,,0.00,WUHU216HW,2013-09-15 20:06:00,
2013-09-15 13:11:00,72.2,61.0,0.00,North,0,2.0,11.2,68,0.00,,,0.00,WUHU216HW,2013-09-15 20:11:00,
2013-09-15 13:16:00,72.7,61.6,0.00,ESE,113,4.3,6.5,68,0.00,,,0.00,WUHU216HW,2013-09-15 20:16:00,
2013-09-15 13:21:00,73.3,61.2,0.00,NW,315,7.2,7.2,66,0.00,,,0.00,WUHU216HW,2013-09-15 20:21:00,
2013-09-15 13:26:00,73.4,61.4,0.00,North,0,3.4,7.2,66,0.00,,,0.00,WUHU216HW,2013-09-15 20:26:00,
2013-09-15 13:31:00,73.6,61.1,0.00,NNW,338,1.1,6.0,65,0.00,,,0.00,WUHU216HW,2013-09-15 20:31:00,
2013-09-15 13:36:00,74.3,61.4,0.00,NNW,338,3.6,6.0,64,0.00,,,0.00,WUHU216HW,2013-09-15 20:36:00,
2013-09-15 13:41:00,74.2,61.2,0.00,NNE,23,4.7,5.8,64,0.00,,,0.00,WUHU216HW,2013-09-15 20:41:00,
2013-09-15 13:46:00,74.0,61.0,0.00,NNW,338,6.5,6.5,64,0.00,,,0.00,WUHU216HW,2013-09-15 20:46:00,
2013-09-15 13:51:00,73.8,60.9,0.00,North,0,2.5,6.5,64,0.00,,,0.00,WUHU216HW,2013-09-15 20:51:00,
2013-09-15 13:56:00,74.2,61.2,0.00,North,0,7.6,7.6,64,0.00,,,0.00,WUHU216HW,2013-09-15 20:56:00,
2013-09-15 14:01:00,74.0,61.0,0.00,NW,315,5.4,11.0,64,0.00,,,0.00,WUHU216HW,2013-09-15 21:01:00,
2013-09-15 14:06:00,73.8,61.3,0.00,ENE,68,1.1,11.0,65,0.00,,,0.00,WUHU216HW,2013-09-15 21:06:00,
2013-09-15 14:11:00,74.3,60.9,0.00,NW,315,6.5,7.6,63,0.00,,,0.00,WUHU216HW,2013-09-15 21:11:00,
2013-09-15 14:16:00,74.3,61.4,0.00,WNW,293,3.4,7.6,64,0.00,,,0.00,WUHU216HW,2013-09-15 21:16:00,
2013-09-15 14:21:00,74.2,61.2,0.00,North,0,1.8,11.0,64,0.00,,,0.00,WUHU216HW,2013-09-15 21:21:00,
2013-09-15 14:26:00,74.3,60.9,0.00,WSW,248,2.2,11.0,63,0.00,,,0.00,WUHU216HW,2013-09-15 21:26:00,
2013-09-15 14:31:00,74.7,61.3,0.00,NW,315,2.9,11.4,63,0.00,,,0.00,WUHU216HW,2013-09-15 21:31:00,
2013-09-15 14:36:00,75.1,61.2,0.00,NW,315,6.9,11.4,62,0.00,,,0.00,WUHU216HW,2013-09-15 21:36:00,
2013-09-15 14:41:00,74.9,60.6,0.00,NNW,338,4.9,7.2,61,0.00,,,0.00,WUHU216HW,2013-09-15 21:41:00,
2013-09-15 14:46:00,74.7,60.9,0.00,NW,315,6.7,7.2,62,0.00,,,0.00,WUHU216HW,2013-09-15 21:46:00,
2013-09-15 14:51:00,74.9,61.0,0.00,NNW,338,4.0,6.7,62,0.00,,,0.00,WUHU216HW,2013-09-15 21:51:00,
2013-09-15 14:56:00,74.9,61.0,0.00,NW,315,3.6,5.4,62,0.00,,,0.00,WUHU216HW,2013-09-15 21:56:00,
2013-09-15 15:01:00,74.5,60.2,0.00,WNW,293,5.6,6.0,61,0.00,,,0.00,WUHU216HW,2013-09-15 22:01:00,
2013-09-15 15:06:00,73.4,60.0,0.00,North,0,1.8,6.0,63,0.00,,,0.00,WUHU216HW,2013-09-15 22:06:00,
2013-09-15 15:11:00,72.9,59.5,0.00,South,180,4.0,6.3,63,0.00,,,0.00,WUHU216HW,2013-09-15 22:11:00,
2013-09-15 15:16:00,73.1,60.6,0.00,NNE,23,2.5,9.8,65,0.00,,,0.00,WUHU216HW,2013-09-15 22:16:00,
2013-09-15 15:21:00,73.8,60.4,0.00,NNW,338,2.5,9.8,63,0.00,,,0.00,WUHU216HW,2013-09-15 22:21:00,
2013-09-15 15:26:00,73.4,60.0,0.00,ENE,68,0.9,7.4,63,0.00,,,0.00,WUHU216HW,2013-09-15 22:26:00,
2013-09-15 15:31:00,74.0,60.1,0.00,WNW,293,4.0,7.2,62,0.00,,,0.00,WUHU216HW,2013-09-15 22:31:00,
2013-09-15 15:36:00,74.5,60.2,0.00,SSW,203,2.5,7.2,61,0.00,,,0.00,WUHU216HW,2013-09-15 22:36:00,
2013-09-15 15:41:00,75.2,60.5,0.00,NNW,338,3.8,4.7,60,0.00,,,0.00,WUHU216HW,2013-09-15 22:41:00,
2013-09-15 15:46:00,75.2,60.5,0.00,WSW,248,6.9,6.9,60,0.00,,,0.00,WUHU216HW,2013-09-15 22:46:00,
2013-09-15 15:51:00,75.4,60.7,0.00,NNW,338,5.4,6.9,60,0.00,,,0.00,WUHU216HW,2013-09-15 22:51:00,
2013-09-15 15:56:00,75.2,60.9,0.00,WSW,248,2.5,5.4,61,0.00,,,0.00,WUHU216HW,2013-09-15 22:56:00,
2013-09-15 16:01:00,74.5,61.1,0.00,East,90,2.2,6.7,63,0.00,,,0.00,WUHU216HW,2013-09-15 23:01:00,
2013-09-15 16:06:00,74.7,60.9,0.00,WNW,293,1.3,6.7,62,0.00,,,0.00,WUHU216HW,2013-09-15 23:06:00,
2013-09-15 16:11:00,75.2,60.5,0.00,WNW,293,2.5,4.7,60,0.00,,,0.00,WUHU216HW,2013-09-15 23:11:00,
2013-09-15 16:16:00,74.7,60.4,0.00,West,270,2.0,10.1,61,0.00,,,0.00,WUHU216HW,2013-09-15 23:16:00,
2013-09-15 16:21:00,74.5,60.7,0.00,NW,315,3.4,10.1,62,0.00,,,0.00,WUHU216HW,2013-09-15 23:21:00,
2013-09-15 16:26:00,74.0,60.1,0.00,WSW,248,3.4,4.9,62,0.00,,,0.00,WUHU216HW,2013-09-15 23:26:00,
2013-09-15 16:31:00,73.8,60.4,0.00,North,0,2.5,7.8,63,0.00,,,0.00,WUHU216HW,2013-09-15 23:31:00,
2013-09-15 16:36:00,73.4,60.5,0.00,NNW,338,2.7,7.8,64,0.00,,,0.00,WUHU216HW,2013-09-15 23:36:00,
2013-09-15 16:41:00,73.4,60.0,0.00,WNW,293,4.0,4.7,63,0.00,,,0.00,WUHU216HW,2013-09-15 23:41:00,
2013-09-15 16:46:00,73.1,60.1,0.00,NNW,338,9.2,9.2,64,0.00,,,0.00,WUHU216HW,2013-09-15 23:46:00,
2013-09-15 16:51:00,72.4,60.0,0.00,WNW,293,4.7,9.2,65,0.00,,,0.00,WUHU216HW,2013-09-15 23:51:00,
2013-09-15 16:56:00,72.0,60.0,0.00,SSW,203,2.0,5.6,66,0.00,,,0.00,WUHU216HW,2013-09-15 23:56:00,
2013-09-15 17:01:00,72.0,60.0,0.00,North,0,2.0,5.6,66,0.00,,,0.00,WUHU216HW,2013-09-16 00:01:00,
2013-09-15 17:06:00,72.0,60.0,0.00,NNW,338,2.2,5.4,66,0.00,,,0.00,WUHU216HW,2013-09-16 00:06:00,
2013-09-15 17:11:00,71.5,59.5,0.00,ENE,68,0.4,6.0,66,0.00,,,0.00,WUHU216HW,2013-09-16 00:11:00,
2013-09-15 17:16:00,71.1,58.7,0.00,North,0,1.3,6.0,65,0.00,,,0.00,WUHU216HW,2013-09-16 00:16:00,
2013-09-15 17:21:00,70.4,58.4,0.00,North,0,3.4,4.7,66,0.00,,,0.00,WUHU216HW,2013-09-16 00:21:00,
2013-09-15 17:26:00,70.0,58.5,0.00,North,0,2.5,6.5,67,0.00,,,0.00,WUHU216HW,2013-09-16 00:26:00,
2013-09-15 17:31:00,70.0,58.5,0.00,WNW,293,1.8,6.5,67,0.00,,,0.00,WUHU216HW,2013-09-16 00:31:00,
2013-09-15 17:36:00,70.2,58.7,0.00,WSW,248,2.2,5.4,67,0.00,,,0.00,WUHU216HW,2013-09-16 00:36:00,
2013-09-15 17:41:00,70.2,58.7,0.00,North,0,4.7,4.9,67,0.00,,,0.00,WUHU216HW,2013-09-16 00:41:00,
2013-09-15 17:46:00,70.0,58.5,0.00,West,270,2.5,4.9,67,0.00,,,0.00,WUHU216HW,2013-09-16 00:46:00,
2013-09-15 17:51:00,69.7,58.1,0.00,NNW,338,2.0,4.9,67,0.00,,,0.00,WUHU216HW,2013-09-16 00:51:00,
2013-09-15 17:56:00,69.8,58.0,0.00,NNW,338,1.1,5.4,66,0.00,,,0.00,WUHU216HW,2013-09-16 00:56:00,
2013-09-15 18:01:00,70.0,58.2,0.00,East,90,2.2,5.4,66,0.00,,,0.00,WUHU216HW,2013-09-16 01:01:00,
2013-09-15 18:06:00,69.7,58.1,0.00,NNE,23,1.1,4.0,67,0.00,,,0.00,WUHU216HW,2013-09-16 01:06:00,
2013-09-15 18:11:00,69.5,58.0,0.00,NNE,23,1.1,4.0,67,0.00,,,0.00,WUHU216HW,2013-09-16 01:11:00,
2013-09-15 18:16:00,69.3,58.7,0.00,NE,45,2.7,3.1,69,0.00,,,0.00,WUHU216HW,2013-09-16 01:16:00,
2013-09-15 18:21:00,68.9,58.3,0.00,NW,315,6.3,6.5,69,0.00,,,0.00,WUHU216HW,2013-09-16 01:21:00,
2013-09-15 18:26:00,68.2,58.2,0.00,North,0,0.4,6.5,70,0.00,,,0.00,WUHU216HW,2013-09-16 01:26:00,
2013-09-15 18:31:00,68.0,58.3,0.00,NNW,338,4.0,6.5,71,0.00,,,0.00,WUHU216HW,2013-09-16 01:31:00,
2013-09-15 18:36:00,67.5,58.6,0.00,WNW,293,8.3,8.3,73,0.00,,,0.00,WUHU216HW,2013-09-16 01:36:00,
2013-09-15 18:42:00,67.3,58.8,0.00,NNW,338,1.8,8.3,74,0.00,,,0.00,WUHU216HW,2013-09-16 01:42:00,
2013-09-15 18:47:00,67.1,59.0,0.00,NNW,338,0.4,4.7,75,0.00,,,0.00,WUHU216HW,2013-09-16 01:47:00,
2013-09-15 18:52:00,67.3,59.1,0.00,NNW,338,0.9,4.0,75,0.00,,,0.00,WUHU216HW,2013-09-16 01:52:00,
2013-09-15 18:57:00,67.3,58.0,0.00,WNW,293,4.7,6.9,72,0.00,,,0.00,WUHU216HW,2013-09-16 01:57:00,
2013-09-15 19:02:00,67.9,57.8,0.00,West,270,4.9,6.9,70,0.00,,,0.00,WUHU216HW,2013-09-16 02:02:00,
2013-09-15 19:07:00,68.0,57.5,0.00,NW,315,4.3,6.0,69,0.00,,,0.00,WUHU216HW,2013-09-16 02:07:00,
2013-09-15 19:12:00,68.0,58.0,0.00,SSW,203,1.8,6.0,70,0.00,,,0.00,WUHU216HW,2013-09-16 02:12:00,
2013-09-15 19:17:00,68.0,58.0,0.00,WNW,293,2.0,4.0,70,0.00,,,0.00,WUHU216HW,2013-09-16 02:17:00,
2013-09-15 19:22:00,68.0,58.0,0.00,NNW,338,4.3,4.3,70,0.00,,,0.00,WUHU216HW,2013-09-16 02:22:00,
2013-09-15 19:27:00,68.0,58.3,0.00,NNW,338,2.0,4.3,71,0.00,,,0.00,WUHU216HW,2013-09-16 02:27:00,
2013-09-15 19:32:00,68.0,58.0,0.00,NW,315,3.4,4.9,70,0.00,,,0.00,WUHU216HW,2013-09-16 02:32:00,
2013-09-15 19:37:00,68.0,58.0,0.00,NNW,338,1.1,4.9,70,0.00,,,0.00,WUHU216HW,2013-09-16 02:37:00,
2013-09-15 19:42:00,68.0,58.0,0.00,NW,315,4.3,8.5,70,0.00,,,0.00,WUHU216HW,2013-09-16 02:42:00,
2013-09-15 19:47:00,68.0,58.0,0.00,NNW,338,0.4,8.5,70,0.00,,,0.00,WUHU216HW,2013-09-16 02:47:00,
2013-09-15 19:52:00,67.9,58.1,0.00,NNW,338,1.1,4.7,71,0.00,,,0.00,WUHU216HW,2013-09-16 02:52:00,
2013-09-15 19:57:00,67.9,58.5,0.00,NNW,338,1.8,4.7,72,0.00,,,0.00,WUHU216HW,2013-09-16 02:57:00,
2013-09-15 20:02:00,67.7,58.3,0.00,NW,315,1.6,4.3,72,0.00,,,0.00,WUHU216HW,2013-09-16 03:02:00,
2013-09-15 20:07:00,67.7,58.3,0.00,North,0,0.7,2.5,72,0.00,,,0.00,WUHU216HW,2013-09-16 03:07:00,
2013-09-15 20:12:00,67.7,58.3,0.00,NNW,338,0.9,2.5,72,0.00,,,0.00,WUHU216HW,2013-09-16 03:12:00,
2013-09-15 20:17:00,67.7,58.8,0.00,NW,315,1.8,1.8,73,0.00,,,0.00,WUHU216HW,2013-09-16 03:17:00,
2013-09-15 20:22:00,67.5,58.1,0.00,North,0,0.7,2.2,72,0.00,,,0.00,WUHU216HW,2013-09-16 03:22:00,
2013-09-15 20:27:00,67.7,58.3,0.00,NW,315,1.8,2.2,72,0.00,,,0.00,WUHU216HW,2013-09-16 03:27:00,
2013-09-15 20:32:00,67.7,58.3,0.00,NNW,338,1.8,2.7,72,0.00,,,0.00,WUHU216HW,2013-09-16 03:32:00,
2013-09-15 20:37:00,67.9,57.8,0.00,North,0,2.2,4.0,70,0.00,,,0.00,WUHU216HW,2013-09-16 03:37:00,
2013-09-15 20:42:00,68.0,58.0,0.00,NNW,338,1.1,4.0,70,0.00,,,0.00,WUHU216HW,2013-09-16 03:42:00,
2013-09-15 20:47:00,68.0,58.0,0.00,WNW,293,5.8,5.8,70,0.00,,,0.00,WUHU216HW,2013-09-16 03:47:00,
2013-09-15 20:52:00,68.0,58.0,0.00,NW,315,3.1,5.8,70,0.00,,,0.00,WUHU216HW,2013-09-16 03:52:00,
2013-09-15 20:57:00,67.9,57.8,0.00,WNW,293,2.9,6.0,70,0.00,,,0.00,WUHU216HW,2013-09-16 03:57:00,
2013-09-15 21:01:00,67.9,57.8,0.00,NW,315,2.5,6.0,70,0.00,,,0.00,WUHU216HW,2013-09-16 04:01:00,
2013-09-15 21:02:00,67.9,57.8,0.00,NW,315,4.3,6.0,70,0.00,,,0.00,WUHU216HW,2013-09-16 04:02:00,
2013-09-15 21:07:00,67.9,57.8,0.00,NNW,338,3.1,5.8,70,0.00,,,0.00,WUHU216HW,2013-09-16 04:07:00,
2013-09-15 21:12:00,67.9,57.3,0.00,NW,315,6.5,8.3,69,0.00,,,0.00,WUHU216HW,2013-09-16 04:12:00,
2013-09-15 21:17:00,67.9,57.8,0.00,NW,315,5.1,8.3,70,0.00,,,0.00,WUHU216HW,2013-09-16 04:17:00,
2013-09-15 21:22:00,67.7,57.2,0.00,NW,315,4.7,6.7,69,0.00,,,0.00,WUHU216HW,2013-09-16 04:22:00,
2013-09-15 21:27:00,67.7,57.2,0.00,NNW,338,0.7,6.3,69,0.00,,,0.00,WUHU216HW,2013-09-16 04:27:00,
2013-09-15 21:32:00,67.7,57.2,0.00,WNW,293,5.4,5.6,69,0.00,,,0.00,WUHU216HW,2013-09-16 04:32:00,
2013-09-15 21:37:00,67.7,57.2,0.00,NNW,338,4.0,5.4,69,0.00,,,0.00,WUHU216HW,2013-09-16 04:37:00,
2013-09-15 21:42:00,67.7,57.6,0.00,WNW,293,2.9,7.6,70,0.00,,,0.00,WUHU216HW,2013-09-16 04:42:00,
2013-09-15 21:47:00,67.5,57.4,0.00,NNW,338,2.7,7.8,70,0.00,,,0.00,WUHU216HW,2013-09-16 04:47:00,
2013-09-15 21:52:00,67.7,57.2,0.00,North,0,1.8,6.9,69,0.00,,,0.00,WUHU216HW,2013-09-16 04:52:00,
2013-09-15 21:57:00,67.7,57.2,0.00,NNW,338,2.9,6.9,69,0.00,,,0.00,WUHU216HW,2013-09-16 04:57:00,
2013-09-15 22:02:00,67.7,56.7,0.00,NNW,338,5.4,6.3,68,0.00,,,0.00,WUHU216HW,2013-09-16 05:02:00,
2013-09-15 22:07:00,67.5,56.6,0.00,NW,315,4.3,5.4,68,0.00,,,0.00,WUHU216HW,2013-09-16 05:07:00,
2013-09-15 22:12:00,67.5,56.6,0.00,NW,315,4.9,4.9,68,0.00,,,0.00,WUHU216HW,2013-09-16 05:12:00,
2013-09-15 22:17:00,67.7,56.7,0.00,NW,315,6.5,7.6,68,0.00,,,0.00,WUHU216HW,2013-09-16 05:17:00,
2013-09-15 22:22:00,67.5,57.0,0.00,NW,315,0.7,7.6,69,0.00,,,0.00,WUHU216HW,2013-09-16 05:22:00,
2013-09-15 22:27:00,67.5,57.8,0.00,NW,315,2.9,5.1,71,0.00,,,0.00,WUHU216HW,2013-09-16 05:27:00,
2013-09-15 22:32:00,67.3,57.6,0.00,North,0,1.3,3.1,71,0.00,,,0.00,WUHU216HW,2013-09-16 05:32:00,
2013-09-15 22:37:00,67.1,57.8,0.00,NNW,338,1.6,2.9,72,0.00,,,0.00,WUHU216HW,2013-09-16 05:37:00,
2013-09-15 22:42:00,67.0,57.6,0.00,North,0,0.0,2.7,72,0.00,,,0.00,WUHU216HW,2013-09-16 05:42:00,
2013-09-15 22:47:00,66.8,57.9,0.00,NW,315,0.7,2.7,73,0.00,,,0.00,WUHU216HW,2013-09-16 05:47:00,
2013-09-15 22:52:00,66.8,57.9,0.00,North,0,1.6,2.0,73,0.00,,,0.00,WUHU216HW,2013-09-16 05:52:00,
2013-09-15 22:57:00,66.6,57.7,0.00,WSW,248,3.6,3.6,73,0.00,,,0.00,WUHU216HW,2013-09-16 05:57:00,
2013-09-15 23:02:00,66.4,57.9,0.00,NW,315,1.1,3.6,74,0.00,,,0.00,WUHU216HW,2013-09-16 06:02:00,
2013-09-15 23:07:00,66.4,57.5,0.00,SE,135,1.3,5.1,73,0.00,,,0.00,WUHU216HW,2013-09-16 06:07:00,
2013-09-15 23:12:00,66.2,57.7,0.00,NNW,338,1.1,5.1,74,0.00,,,0.00,WUHU216HW,2013-09-16 06:12:00,
2013-09-15 23:17:00,66.1,57.5,0.00,NE,45,0.7,2.7,74,0.00,,,0.00,WUHU216HW,2013-09-16 06:17:00,
2013-09-15 23:22:00,65.9,57.7,0.00,NNW,338,1.8,2.5,75,0.00,,,0.00,WUHU216HW,2013-09-16 06:22:00,
2013-09-15 23:27:00,65.7,57.5,0.00,WNW,293,1.1,2.9,75,0.00,,,0.00,WUHU216HW,2013-09-16 06:27:00,
2013-09-15 23:32:00,65.5,57.3,0.00,NNE,23,2.5,2.9,75,0.00,,,0.00,WUHU216HW,2013-09-16 06:32:00,
2013-09-15 23:37:00,65.5,57.0,0.00,North,0,2.0,2.5,74,0.00,,,0.00,WUHU216HW,2013-09-16 06:37:00,
2013-09-15 23:42:00,65.5,57.0,0.00,North,0,0.9,2.5,74,0.00,,,0.00,WUHU216HW,2013-09-16 06:42:00,
2013-09-15 23:47:00,65.7,57.2,0.00,NE,45,2.0,2.7,74,0.00,,,0.00,WUHU216HW,2013-09-16 06:47:00,
2013-09-15 23:52:00,65.5,57.0,0.00,NW,315,0.4,2.7,74,0.00,,,0.00,WUHU216HW,2013-09-16 06:52:00,
2013-09-15 23:57:00,65.7,56.8,0.00,North,0,0.4,2.5,73,0.00,,,0.00,WUHU216HW,2013-09-16 06:57:00,